TITAN 3A DEB (TRUSS), 1000

Orbit data source: Space-Track

TITAN 3A DEB (TRUSS), 1000 is space debris in LEO originally from a launch on Thu, 11 Feb 1965 UTC launched from the Air Force Eastern Test Range (AFETR). Debris objects in space refer to the collection of defunct objects orbiting the Earth. Examples of debris include non-operational satellites, rocket bodies, and fragments generated from explosions, collisions, or faulty payload assembly.

Loading next visibility...
Identifier
1000, 1965-008B
Orbit
LEO
Country
Flag of USUS
Related business
Manufacturer
Martin Marietta
Mission
Spacecraft
Bus & Motor
TRANSTAGE, Unknown motor
Mass
1,950 kg wet, 1,950 kg dry
Launch date (UTC)
1965-02-11 (61 years ago)
Launch vehicle
Unknown
Launch site
Air Force Eastern Test Range (AFETR)
Object type
Payload
Rocket body
Debris
Shape & HBR
Unknown
Radar Cross Section
Large (>1 m²)

Expand to show TLE details & history
Last TLE update: 15 hours ago

TLE from 15 hours ago
0 TITAN 3A DEB (TRUSS)
1 01000U 65008B   26126.04307197 -.00000004  00000-0 -16375-2 0  9998
2 01000  32.1435  75.6434 0011142 219.2993 140.6696  9.88891416213185
Epoch: 2026-05-06T01:02Z
TLE epoch observation values (Epoch: 2026-05-06T01:02:01.418Z)
Latitude
0.00001°
Longitude
-163.77172°
Altitude
2,797.324 km
Speed
6.59 km/s
True Right ascension
05h 02m 34s
True Declination
0° 00' 00"
Sunlit
Object was in daylight at epoch
Visualization orbit readout
Latitude
Unknown
Longitude
Unknown
Altitude
Unknown
Speed
Unknown
Apparent Right ascension
Unknown
Apparent Declination
Unknown
Sunlit
N/A
Visualization observer readout
Local Sidereal Time
23:36:35
Azimuth
Unknown
Elevation
Unknown
Doppler factor
Unknown
Orbital elements
Apogee altitude
2,803.447 km
Perigee altitude
2,783.009 km
Semi-major axis
9,171.365 km
Eccentricity
0.00111
Inclination
32.1435°
RAAN
75.6434°
Arg. of periapsis
219.2993°
True anomaly
140.75043°
Mean anomaly
140.6696°
Eccentric anomaly
140.71003°
Mean motion
2.47111 °/min
Orbital period
145.68 mins
BSTAR
-0.0016375
Loading maneuver chart data...
Computing Atmospheric mass density...
Loading historical data...
Loading historical data...
Loading historical data...
Loading historical data...
Loading historical data...
Loading historical data...
Loading historical data...
Other satellites on launch #8 in the year 1965 (1965-02-11 UTC)

Documentation

Showing up to 5 results
|